Regional Weather Roundup
Issued by NWS Pendleton, OR

Home | Current Version | Previous Version | Text Only | Print | Product List | Glossary On
Versions: 1 2 3 4 5 6 7 8 9 10 11 12 13 14 15 16 17 18 19 20 21 22 23 24 25 26 27 28 29 30 31 32 33 34 35 36 37 38 39 40 41 42 43 44 45 46 47 48 49 50
000
ASUS46 KPDT 232225
RWRPDT
PENDLETON REGIONAL WEATHER ROUNDUP
NATIONAL WEATHER SERVICE PENDLETON OREGON
300 PM PDT THU MAR 23 2017

NOTE: FAIR INDICATES FEW OR NO CLOUDS BELOW 12,000 FEET WITH NO
SIGNIFICANT WEATHER AND/OR OBSTRUCTIONS TO VISIBILITY.

# INDICATES UNOFFICIAL STATION AND DATA

WAZ520-232310-
EAST SLOPES OF WASHINGTON CASCADES

CITY            SKY/WX      TMP DP  RH  WIND    PRES   REMARKS
#CLE ELUM HS    N/A         49  29  46  E3      29.93F
#CLE ELUM LAKE  N/A         47  28  47  W2      29.98F
#GLENWOOD       N/A         49  35  58  S1      30.01F
#NELSON 3SW     N/A         45  31  58  CALM    30.22F
#NILE           N/A         48  29  47  CALM    29.27F
#TEANAWAY 4NE   N/A         51  36  56  S1      N/A
#TROUT LAKE 1NE N/A         48  30  49  CALM    30.03F
#TROUT LAKE 1E  N/A         49  33  54  CALM    30.02F
$$

WAZ521-232310-
SIMCOE HIGHLANDS

CITY            SKY/WX      TMP DP  RH  WIND    PRES   REMARKS
#BICKLETON HS   N/A         46  31  56  SW8     30.03S
#CENTERVILLE 1SWN/A         49  34  56  CALM    29.98F
#GOLDENDALE 1NE N/A         50  23  34  S5      N/A
#GOLDENDALE 4W  N/A         53  11  18  SE2     30.01F
#GOODNOE HILLS  N/A         56  33  42  NE3     29.91F
#LYLE 6NE       N/A         51  37  59  CALM    29.99F
#PITT 4SE       N/A         47  33  58  SW1     30.06F
$$

WAZ026-232310-
KITTITAS VALLEY

CITY            SKY/WX      TMP DP  RH  WIND    PRES   REMARKS
ELLENSBURG AP   SUNNY       55  29  37  VRB6    29.99F
#ELLENSBURG CWU N/A         52  27  38  SE7     29.96F
#ELLENSBURG 3NE N/A         49  31  50  CALM    28.06F
#ELLENSBURG 13S N/A         54  24  31  NW7     N/A
#KITTITAS 4N    N/A         54  35  48  SW3     30.01F
#KITTITAS 3S    N/A         50  31  48  S2      30.01F
#THORP 6N       N/A         46  32  58  E6      30.03F
$$

WAZ027-232310-
YAKIMA VALLEY

CITY            SKY/WX      TMP DP  RH  WIND    PRES   REMARKS
SUNNYSIDE AP    PTCLDY      55  33  43  E10     30.02F
YAKIMA AIRPORT  SUNNY       56  32  40  MISG    30.01F
YAKIMA-VAGABOND MOSUNNY     52  30  43  SW12    29.98F
#DONALD 2NE     N/A         56   0  10  SE12    28.91S
#GRANDVIEW      N/A         55  30  38  S3      30.04F
#MABTON         N/A         55  36  49  SE10    30.01F
#MOXEE 2E       N/A         55   0  10  CALM    29.92F
#NACHES 2SW     N/A         53  33  46  S3      30.00F
#TERRACE HTS    N/A         56  34  43  CALM    29.99F
#TOPPENISH      N/A         53  33  46  E3      29.94F
#WEST VALLEY    N/A         52  32  46  S2      30.00F
#W YAKIMA       N/A         53  31  43  S6      30.02F
#WHITE SWAN 5E  N/A         54  37  52  CALM    30.02F
#WILEY CITY 3W  N/A         52  27  38  CALM    29.96F
$$

WAZ028-232310-
LOWER COLUMBIA BASIN...WASHINGTON

CITY            SKY/WX      TMP DP  RH  WIND    PRES   REMARKS
HANFORD         MOCLDY      56  28  34  S6      30.03F
PASCO           PTCLDY      56  32  40  SE12    30.05F
PROSSER AWOS    N/A         55  32  41  S10     30.05F
RICHLAND AWOS   PTCLDY      59  32  36  S5      30.04F
#BENTON CITY    N/A         55  32  41  W1      29.96F
#CONNELL 5N     N/A         54  36  50  S1      30.06F
#CONNELL 5NW    N/A         52  33  48  S6      30.01F
#ELTOPIA 6NW    N/A         52  33  48  S1      29.00F
#KAHLOTUS       N/A         50  31  48  W1      30.06F
#KENNEWICK 3S   N/A         55  36  49  SW1     30.06F
#PATERSON       N/A         55  34  45  CALM    30.02F
#SAGEMOOR 2W    N/A         53  34  48  S3      29.91F
#TOUCHET 2S     N/A         56  38  51  N3      30.02F
#WEST PASCO     N/A         59  38  45  W1      30.03F
$$

WAZ029-232310-
FOOTHILLS OF THE BLUES...WASHINGTON

CITY            SKY/WX      TMP DP  RH  WIND    PRES   REMARKS
WALLA WALLA AP  MOCLDY      53  31  43  CALM    30.04F
#CLYDE 6NW      N/A         50  33  52  W6      30.06F
#DAYTON SCHOOL  N/A         52  24  33  SW2     30.05F
#LOWDEN 2SE     N/A         56  35  45  NW1     30.01F
#PLEASANT VIEW 1N/A         50  34  54  S7      30.11F
#PRESCOTT       N/A         54  36  50  CALM    30.05F
#WHITMAN COLLEGEN/A         54  33  45  SW2     30.09F
#WAITSBURG 5S   N/A         50  36  58  W1      30.15F
#WAITSBURG 8N   N/A         52  N/A N/A S9      29.99S
#WALLA WALLA 5E N/A         54  36  50  CALM    N/A
#WHITMAN MISSIONN/A         55  38  53  CALM    30.06F
$$

WAZ030-232310-
BLUE MOUNTAINS...WASHINGTON

CITY            SKY/WX      TMP DP  RH  WIND    PRES   REMARKS
#DIXIE 5SE      N/A         38  28  67  S12     29.93F WCI 30
$$

ORZ009-041-WAZ024-232310-
COLUMBIA RIVER GORGE

CITY            SKY/WX      TMP DP  RH  WIND    PRES   REMARKS
HOOD RIVER AP   CLOUDY      55  34  45  N5      30.01F
THE DALLES AP   PTCLDY      57  35  43  CALM    30.01F
#ARLINGTON AIRPON/A         54  35  48  W2      30.03F
#ARLINGTON HS   N/A         56  31  38  W6      29.93F
#CELILO DOT     N/A         58  30  34  S8      N/A
#LYLE           N/A         56  36  47  SW3     30.02F
#MOSIER 1S      N/A         57  25  29  CALM    29.97F
#MURDOCK        N/A         57  36  45  N2      29.97F
#RUFUS DOT      N/A         55  33  43  E6      N/A
#SMITHVILLE     N/A         57  39  51  N3      29.95F

$$

ORZ510-232310-
NORTH CENTRAL OREGON

CITY            SKY/WX      TMP DP  RH  WIND    PRES   REMARKS
#ANTELOPE       N/A         52  35  52  S3      29.91F
#CHENOWITH 1W   N/A         47  34  60  E3      N/A
#COW CYN RST AREN/A         50  29  44  SW7     N/A
#DUFUR          N/A         52  38  59  NE7     29.97F
#DUFUR 9E       N/A         49  27  42  SE5     30.07F
#GRASS VALLEY 1SN/A         53  31  43  SW5     30.11F
#KENT DOT       N/A         53  20  27  CALM    N/A
#MAUPIN SCHOOL  N/A         57  31  37  CALM    30.01F
#MORO SCHOOL    N/A         55  38  53  CALM    30.05F
#SHANIKO 5WSW   N/A         50  20  30  N14     N/A
#SHANIKO 4NW    N/A         49  27  42  S7      29.96F
#TYGH VALLEY 2NEN/A         55  34  45  N1      29.98F
#WAPANITIA AIRPON/A         54  35  48  E2      30.01F
#WASCO 5NE      N/A         51  38  61  CALM    30.02F
$$

ORZ511-232310-
CENTRAL OREGON

CITY            SKY/WX      TMP DP  RH  WIND    PRES   REMARKS
BEND AIRPORT    SUNNY       57  14  18  SW12    29.93F
MADRAS AIRPORT  SUNNY       55  25  31  CALM    29.97
PRINEVILLE AP   SUNNY       57  19  22  S10     29.93F
REDMOND AIRPORT SUNNY       58  11  15  S10     29.94F
#ASHWOOD SCHOOL N/A         56  27  33  CALM    29.91F
#BEND 1SW       N/A         55  24  30  SW3     N/A
#BEND-AWBREY    N/A         54  19  25  SW7     29.98F
#BEND-KIM LN    N/A         54  22  28  CALM    29.93F
#CULVER         N/A         54  24  31  W3      29.91F
#CULVER 8W      N/A         56  24  29  W3      29.95F
#LAKE BILLY CHINN/A         55  N/A N/A E3      30.02F
#POWELL BUTTE   N/A         57  19  22  W7      29.89F
#PRINEVILLE     N/A         57  23  27  SW2     30.07F
#PRINEVILLE 3N  N/A         57  24  28  SE8     29.97F
#WARM SPRINGS   N/A         57  35  43  CALM    29.93F

$$


ORZ509-232310-
EAST SLOPES OF OREGON CASCADES

CITY            SKY/WX      TMP DP  RH  WIND    PRES   REMARKS
SISTERS AWOS    N/A         54  21  27  NW8     29.92F
#BLUE BOX PASS  N/A         47  N/A N/A S2      N/A
#CAMP SHERMAN   N/A         55  22  27  CALM    30.03F
#LA PINE 4NW    N/A         50  21  32  W6      30.07F
#LAVA BUTTE DOT N/A         51  14  22  SE3     N/A
#SISTERS 3N     N/A         53  27  36  CALM    29.93F
#SUNRIVER       N/A         52  21  29  S3      30.02F
#TUMALO 3W      N/A         52  15  23  SW6     29.87F
#WANOGA BUTTE D N/A         41  11  29  W8      N/A

$$

ORZ044-232310-
LOWER COLUMBIA BASIN...OREGON

CITY            SKY/WX      TMP DP  RH  WIND    PRES   REMARKS
HERMISTON       PTCLDY      56  35  45  VRB3    30.03F
#BOARDMAN SCHOOLN/A         55  36  49  N5      30.02F
#BOARDMAN 8SW   N/A         57  37  47  W1      30.01F
#ECHO 8SW       N/A         59  36  42  E2      30.03F
#I-84 EX 198 DOTN/A         55  32  41  N2      N/A
#IONE SCHOOL    N/A         56  34  43  CALM    30.02F
#UMATILLA       N/A         56  34  43  N6      29.97F
$$

ORZ507-232310-
NORTHERN FOOTHILLS OF THE BLUES

CITY            SKY/WX      TMP DP  RH  WIND    PRES   REMARKS
PENDLETON AIRPT MOCLDY      54  34  47  E7      30.01F
#ADAMS 3WNW     N/A         52  36  54  NE1     30.03F
#ATHENA         N/A         52  33  48  CALM    30.07F
#CAYUSE         N/A         52  35  52  E5      30.03F
#HELIX SCHOOL   N/A         53  32  45  N1      30.04F
#HELIX 3N       N/A         50  31  48  S2      29.99F
#HOLDMAN 5SE    N/A         54  36  50  CALM    30.00F
#HOLDMAN 6E     N/A         52  37  56  CALM    29.85F
#M-F FERNDALE   N/A         57  32  38  CALM    30.01F
#M-F GROVE ELEM N/A         54  29  38  SW1     30.01F
#M-FREEWATER 5SEN/A         54  36  50  W3      30.02F
#PENDLETON DNTN N/A         59  34  39  N3      30.01F
#PDT AQUATIC CTRN/A         57  36  45  CALM    29.93S
#PDT SUNRIDGE   N/A         56  36  47  NW1     30.03F
#PILOT ROCK 1S  N/A         53  33  46  CALM    30.01F
#PILOT ROCK     N/A         53  35  50  N6      30.01F
#TUTUILLA       N/A         56  39  53  NE6     30.03F
#UMAPINE 2E     N/A         56  38  51  VRB1    30.01F
#WESTON SCHOOL  N/A         50  30  46  NE1     29.97F

$$

ORZ508-232310-
SOUTHERN FOOTHILLS OF THE BLUES

CITY            SKY/WX      TMP DP  RH  WIND    PRES   REMARKS
LEXINGTON       PTCLDY      55  34  45  NE8     30.02F
#AJAX           N/A         51  26  37  CALM    30.14F
#CONDON SCHOOL  N/A         52  29  41  S1      29.93F
#CONDON 5W      N/A         50  27  41  S3      29.95F
#FOSSIL SCHOOL  N/A         55  26  32  SW3     29.91F
#HEPPNER EOC    N/A         54  31  41  W6      29.96F
#HEPPNER 4NE    N/A         51  29  42  CALM    30.03F
#LEXINGTON 2SE  N/A         57  35  43  N3      29.95F
#OLEX 4N        N/A         54  37  52  NE3     29.98F
#RUGGS 5NE      N/A         58  30  34  W2      30.14F
#RUGGS 2SW      N/A         52  29  41  W2      30.06F

$$

ORZ502-503-232310-
BLUE MOUNTAINS

CITY            SKY/WX      TMP DP  RH  WIND    PRES   REMARKS
MEACHAM         MOCLDY      47  18  31  E5      29.99F
#BATTLE MTN DOT N/A         44  17  33  S8      N/A
#GREENHORN 9SW  N/A         50  N/A N/A SW1     26.18F
#HARDMAN 10S    N/A         46  26  45  SW5     30.17F
#HEPPNER 15SE   N/A         48  29  47  E1      30.01F
#LADD CYN SMT   N/A         50  30  46  CALM    N/A
#LADD CREEK ODOTN/A         48  27  44  NE3     N/A
#LONG CREEK HS  N/A         49  29  46  CALM    N/A
#N POWDER DOT   N/A         51  28  41  CALM    N/A
#PIKES PEAK     N/A         42  30  62  CALM    27.99S
#TOLLGATE       N/A         39  26  59  CALM    29.85F
#TROY SCHOOL    N/A         54  31  41  N1      29.88F
#UKIAH          N/A         51  31  46  S3      29.96F
#WESTON 4E      N/A         47  34  60  NW1     30.03F
$$

ORZ505-232310-
JOHN DAY BASIN

CITY            SKY/WX      TMP DP  RH  WIND    PRES   REMARKS
JOHN DAY        SUNNY       53  27  36  CALM    29.98F
#JOHN DAY KJDY  N/A         53  N/A N/A N3      29.20R
#ANTELOPE 9ESE  N/A         59  32  36  S1      N/A
#DAYVILLE SCHOOLN/A         55  22  27  S13     29.96F
#MITCHELL       N/A         54  32  43  CALM    30.12F
#MITCHELL 8NW   N/A         54  22  28  W5      29.82F
#MONUMENT HS    N/A         59  28  30  CALM    29.95F
#MT. VERNON 5SE N/A         48  29  47  CALM    29.93F
#SPRAY SCHOOL   N/A         58  N/A N/A CALM    N/A
#WINLOCK        N/A         50  34  54  SW2     29.94F
$$

ORZ506-232310-
OCHOCO AND JOHN DAY HIGHLANDS

CITY            SKY/WX      TMP DP  RH  WIND    PRES   REMARKS
#HORSE RIDGE DO N/A         53   5  14  S18     N/A
#PAULINA SCHOOL N/A         52  23  32  SW8     N/A
#PINE MTN OBS   N/A         40  19  42  SE10    N/A
#PRAIRIE CITY   N/A         52  28  39  CALM    30.15F
#SENECA         N/A         47  N/A N/A N7      N/A
#SENECA 9NW     N/A         48  24  39  W1      30.06F
$$

ORZ049-232310-
GRANDE RONDE VALLEY

CITY            SKY/WX      TMP DP  RH  WIND    PRES   REMARKS
LA GRANDE       PTCLDY      50  28  42  N3      30.00F
#COVE           N/A         50  25  37  N2      30.03F
#COVE SCHOOL    N/A         51  23  33  CALM    30.02F
#COVE 6NW       N/A         50  27  41  CALM    30.06F
#ELGIN 3N       N/A         52  27  38  N2      29.98F
#ELGIN 1E       N/A         52  29  41  W1      N/A
#IMBLER SCHOOL  N/A         48  30  49  CALM    29.97F
#ISLAND CITY 4N N/A         53  42  66  S2      30.00F
#UNION 1S       N/A         51  29  42  W1      30.06F
$$

ORZ050-232310-
WALLOWA COUNTY

CITY            SKY/WX      TMP DP  RH  WIND    PRES   REMARKS
JOSEPH AIRPORT  PTCLDY      46  23  40  CALM    30.01F
#IMNAHA SCHOOL  N/A         56  22  26  E1      30.01F
#IMNAHA 10S     N/A         52  28  39  NE2     29.99F
#JOSEPH 3N      N/A         44  26  49  NW1     30.04F
#JOSEPH 3W      N/A         42  27  55  N2      29.84F
#LOSTINE        N/A         49  32  52  NE1     29.87F
#LOSTINE 3SE    N/A         47  28  47  SE3     30.05F
#MT HOWARD 8000 N/A         29  25  85  CALM    29.94R
#PROMISE 1S     N/A         45  23  41  S1      30.14F
#WALLOWA SCHOOL N/A         50  31  48  NE1     29.98F



$$



USA.gov is the U.S. government's official web portal to all federal, state and local government web resources and services.